Location: Ch�tillon
(48.8024°N, 2.2935°E)
Time: 03:49:39
(UTC+00:00)

Genesis I - Pass Details

Date: 16 October 2021
Orbit: 469 x 547 km, 64.5° (Epoch: 27 November)

Event Time Altitude Azimuth Distance (km) Brightness Sun altitude
Rises 17:28:52 0° 322° (NW) 2,716 7.3 -5.7°
Reaches altitude 10° 17:31:06 10° 327° (NNW) 1,825 6.4 -6.0°
Maximum altitude 17:35:10 58° 47° (NE) 644 3.4 -6.7°
Drops below altitude 10° 17:39:12 10° 127° (SE) 1,817 5.5 -7.4°
Enters shadow 17:41:22 - 131° (SE) 2,678 6.4 -7.7°
